This is the latest recevied weather packets stored in our database for station/object KI6SYE. If no packets are shown the sender has not sent any weather packets the latest 10 day(s).
| Time | Temp. | Humidity | Pressure | Rain* | Wind** | Luminosity | Snow |
|---|---|---|---|---|---|---|---|
| 1777557997 | 14.44° C | 90% | 1013.3 hPa | 0 mm | - | 41 W/m² | - |
| 1777557693 | 13.89° C | 90% | 1013.2 hPa | 0 mm | - | 33 W/m² | - |
| 1777557390 | 13.89° C | 91% | 1013.2 hPa | 0 mm | - | 30 W/m² | - |
| 1777557086 | 13.89° C | 91% | 1013 hPa | 0 mm | - | 26 W/m² | - |
| 1777556782 | 13.89° C | 92% | 1013 hPa | 0 mm | - | 26 W/m² | - |
| 1777556479 | 13.33° C | 92% | 1013 hPa | 0 mm | - | 20 W/m² | - |
| 1777556178 | 13.33° C | 93% | 1012.8 hPa | 0 mm | - | 18 W/m² | - |
| 1777555874 | 13.33° C | 93% | 1012.9 hPa | 0 mm | - | 13 W/m² | - |
| 1777555570 | 13.33° C | 94% | 1012.9 hPa | 0 mm | - | 11 W/m² | - |
| 1777555267 | 13.33° C | 94% | 1012.8 hPa | 0 mm | - | 9 W/m² | - |
| 1777554963 | 12.78° C | 94% | 1012.8 hPa | 0 mm | - | 6 W/m² | - |
| 1777554660 | 13.33° C | 94% | 1012.7 hPa | 0 mm | - | 4 W/m² | - |
| 1777554357 | 12.78° C | 94% | 1012.6 hPa | 0 mm | - | 2 W/m² | - |
| 1777554055 | 12.78° C | 94% | 1012.6 hPa | 0 mm | - | 1 W/m² | - |
| 1777553751 | 12.78° C | 94% | 1012.9 hPa | 0 mm | - | 0 W/m² | - |
| 1777553449 | 12.78° C | 94% | 1012.9 hPa | 0 mm | - | 0 W/m² | - |
| 1777553144 | 12.78° C | 94% | 1012.9 hPa | 0 mm | - | 0 W/m² | - |
| 1777552843 | 12.78° C | 94% | 1012.8 hPa | 0 mm | - | 0 W/m² | - |
| 1777552539 | 12.78° C | 93% | 1013.1 hPa | 0 mm | - | 0 W/m² | - |
| 1777552236 | 12.78° C | 93% | 1013.1 hPa | 0 mm | - | 0 W/m² | - |
| 1777551933 | 12.78° C | 93% | 1013 hPa | 0 mm | - | 0 W/m² | - |
| 1777551630 | 12.78° C | 93% | 1012.9 hPa | 0 mm | - | 0 W/m² | - |
| 1777551328 | 12.78° C | 93% | 1013.1 hPa | 0 mm | - | 0 W/m² | - |
| 1777551024 | 12.78° C | 93% | 1013.1 hPa | 0 mm | - | 0 W/m² | - |
| 1777550721 | 12.78° C | 93% | 1012.9 hPa | 0 mm | - | 0 W/m² | - |
* Rain latest hour (hover to see other rain measurements)
** Current wind speed in m/s (hover to see current wind gust speed)